カタログに戻る

METEOR 2-8 DEB

運用中PO
NORAD 36861·DEBRIS·🇷🇺 Russia

打ち上げ Mar 25, 1982 から Plesetsk Cosmodrome

Loading…

次のパス (今後24時間)

TLE

経年Source: Space-Track

元期: Sep 6, 2026, 08:38 UTC

1 36861U 82025AY  26249.35979339  .00001849  00000-0  69654-3 0  9997
2 36861  82.5018 113.9639 0025176 171.0979 189.0659 14.30854095677611

AllMySatでMETEOR 2-8 DEBをリアルタイム追跡

Download on the App Store